time,iso_time,nbs_mean,nbs_n,nbs_stdev,sbs_mean,sbs_n,sbs_stdev,wai_mean,wai_n,wai_stdev,cai_mean,cai_n,cai_stdev,eai_mean,eai_n,eai_stdev,wgoa_mean,wgoa_n,wgoa_stdev,cgoa_mean,cgoa_n,cgoa_stdev,egoa_mean,egoa_n,egoa_stdev
"s since Jan. 1, 1970",ISO_time,m s-1,,m s-1,m s-1,,m s-1,m s-1,,m s-1,m s-1,,m s-1,,,,,,,,,,,,
553305600,1987-07-15T00:00:00Z,4.269422824,1333,0.915641575,5.506325878,852,0.67390669,7.26419168,728,0.482783552,6.643014969,655,0.368696996,6.720099267,752,0.536486898,6.404881143,702,0.394627923,5.248635214,976,1.04300411,4.361845808,930,0.817003629
555984000,1987-08-15T00:00:00Z,5.319428733,1326,0.928914703,5.719992119,855,0.49850415,7.690764164,727,0.332481382,6.730314949,654,0.514329608,6.184030667,751,0.253791237,6.206049805,700,0.321972617,5.581995413,981,0.842667611,5.451475288,935,1.062452536
558662400,1987-09-15T00:00:00Z,8.904617229,1323,0.510537113,8.950817643,856,0.424153453,7.610934545,727,0.308727758,8.196835579,654,0.436580511,8.943517367,751,0.477326817,9.544379107,699,0.414188745,8.737474091,980,0.733033113,8.295844359,930,0.527500049
561254400,1987-10-15T00:00:00Z,9.410223017,1331,0.77979953,9.465122116,856,0.471922852,9.855719943,727,0.272821913,9.878833829,654,0.325537861,10.20075446,751,0.36723514,9.958283737,699,0.544999586,9.386874203,980,0.613848929,9.736205531,932,0.719835647
563932800,1987-11-15T00:00:00Z,10.26863072,1323,0.771321151,9.551502263,856,0.380745592,10.91868337,727,0.460179321,10.46336995,654,0.360884607,10.26261534,751,0.430036454,9.7210226,700,0.475979086,9.850014778,978,0.510955194,10.52064388,933,0.616969463
566524800,1987-12-15T00:00:00Z,9.019182381,725,1.471439683,10.39393038,850,1.812452202,5.663296832,727,1.34850141,8.051917586,654,0.892066189,9.135240903,751,0.941867771,10.10285571,697,1.748287214,13.29200445,956,2.657102502,11.26515323,917,2.323319959
569203200,1988-01-15T00:00:00Z,8.51354471,599,1.336800573,8.904165678,856,1.078849878,8.830624167,727,0.766103704,8.837689041,654,0.60715543,9.853848514,751,0.52906459,9.134084674,702,0.895390871,8.561573569,974,0.817023266,9.741847009,935,0.678340417
571881600,1988-02-15T00:00:00Z,11.45934047,543,1.8473632,10.09705388,856,0.435585653,9.414300932,727,0.492315171,10.34455932,654,0.312645572,10.02755571,751,0.416058352,10.15296786,701,0.691860951,11.34064013,981,0.710116725,10.72094151,934,0.614838235
574387200,1988-03-15T00:00:00Z,9.950464,184,2.965235276,8.703517086,802,1.753988672,9.628657072,727,0.244331075,9.765417443,654,0.469549958,9.32347365,751,0.478410205,9.570535017,700,0.385966866,9.943648358,980,0.743404467,9.696483956,932,0.692835693
577065600,1988-04-15T00:00:00Z,6.810930091,402,1.68366132,8.595307823,856,1.625210008,8.090309867,727,0.413753748,9.201134545,654,0.414330964,10.12110935,751,0.716244745,10.56131627,700,0.392178836,9.910741791,984,0.670244442,8.552225249,937,0.667819247
579657600,1988-05-15T00:00:00Z,6.594634629,1041,1.918600074,6.512459983,859,1.600977909,8.469529513,731,0.792484094,9.275194719,658,0.901140727,9.330092353,755,0.806472103,8.459442832,704,1.13166307,6.532676139,984,0.837225617,6.700094952,939,1.143670857
582336000,1988-06-15T00:00:00Z,5.15409739,1334,0.573407828,5.543779687,852,0.355154131,6.699002109,728,0.339929627,6.22558631,655,0.553070518,5.817412031,752,0.55016246,6.532060087,701,0.389715264,6.961485571,980,0.883801321,6.77644423,938,0.846285171
584928000,1988-07-15T00:00:00Z,4.800229088,1330,0.659173865,4.831078212,851,0.420475875,5.423137009,727,0.239765226,5.475982013,654,0.336608503,5.739080315,751,0.371817409,5.947235631,700,0.392469902,5.593861153,984,0.578493673,5.455325925,934,0.448688623
587606400,1988-08-15T00:00:00Z,6.839389637,1329,0.526871171,6.750130208,855,0.487714901,5.991677055,727,0.352613634,6.554821889,654,0.500337228,7.014638035,751,0.353287636,7.920073026,701,0.274521409,7.954235728,979,0.628630798,6.438918366,935,0.717521718
590284800,1988-09-15T00:00:00Z,7.258121622,1330,0.741969013,8.260613662,851,0.447729363,8.158502676,727,0.321408439,8.212663656,654,0.266749725,8.923980266,751,0.447968142,9.619005806,699,0.425343811,9.254389056,981,0.696419074,7.824010083,936,0.526015608
592876800,1988-10-15T00:00:00Z,7.955861714,1336,0.696983452,8.809508345,851,0.461315604,9.169454415,727,0.334594461,9.443056999,654,0.386943234,9.495448777,751,0.575283253,9.642485352,700,0.250599395,9.094602001,980,0.538747102,8.602368635,934,0.727933515
595555200,1988-11-15T00:00:00Z,10.24263952,1333,1.231749258,10.48917795,856,0.635758758,10.23988292,728,0.461014362,10.59575382,655,0.651184798,11.1085296,752,0.678833681,11.47438021,701,0.588517856,11.09565747,984,1.027647813,9.965884024,935,0.889107403
598147200,1988-12-15T00:00:00Z,11.00552766,736,1.783882803,11.28394153,857,1.051588801,10.27414443,728,0.786272617,11.44099401,655,0.561179972,11.06742826,752,0.592240614,11.84636624,701,0.757553883,11.27650257,981,0.895924309,9.894112574,933,0.876850886
600825600,1989-01-15T00:00:00Z,11.71953417,736,1.800049329,11.75039862,855,1.092178862,12.67447827,727,0.611851411,12.96727172,654,0.563304506,12.84140677,751,0.480127692,11.74377372,700,0.488937054,11.97849772,982,0.93882831,10.97113657,935,0.77915114
603504000,1989-02-15T00:00:00Z,9.311722805,867,2.118943322,10.2153507,863,1.773522555,11.52297317,734,1.169249589,10.45971273,661,1.173997637,10.45487908,758,1.048130298,10.80477452,707,1.193283262,8.697117511,989,2.134263578,6.364320984,943,1.307982861
605923200,1989-03-15T00:00:00Z,8.393814014,836,1.699338717,8.066413135,851,1.449751911,10.33517423,728,0.491003084,9.757856483,655,0.539860224,8.565650453,752,0.528620448,8.236863075,701,0.433195024,8.190571189,980,0.73286687,7.645499475,937,0.835275371
608601600,1989-04-15T00:00:00Z,8.116834435,1040,1.979075709,8.452615489,851,1.502702467,9.04751037,727,0.430072873,9.047322964,654,0.333230955,9.116309764,751,0.325465266,8.810124766,701,0.632531412,6.643759547,982,0.664442281,6.161669087,936,0.627130071
611193600,1989-05-15T00:00:00Z,6.623225765,1332,0.986492973,7.089716397,855,1.077440556,7.441125505,727,0.490381024,8.168657869,654,0.503675473,7.781745433,751,0.466232743,7.283829127,702,0.612931606,6.778238767,982,0.681283713,5.645264717,934,0.405764822
613872000,1989-06-15T00:00:00Z,4.539588539,1332,0.499333282,5.857608351,851,0.540753473,5.753757146,727,0.580585764,6.097151543,654,0.357838072,6.672274207,751,0.307337507,7.476804548,700,0.474250509,7.280619366,981,0.624371478,6.696289063,935,0.631992896
616464000,1989-07-15T00:00:00Z,5.612981993,1320,0.431056051,5.64364018,851,0.573321197,5.212147121,727,0.390273796,5.980609859,654,0.333451727,5.806071072,751,0.336951084,6.352491629,700,0.465340165,6.102960783,983,0.613861028,5.541780616,937,0.37373488
619142400,1989-08-15T00:00:00Z,5.972227676,1333,0.512497368,6.388411763,856,0.450303765,6.970342951,728,0.360450493,6.854402731,655,0.362830206,7.184285915,752,0.522006509,7.254407766,701,0.49968729,6.92480071,982,0.945294162,5.383295559,935,0.656185697
621820800,1989-09-15T00:00:00Z,8.555248255,1334,0.574257062,8.475746985,855,0.483083102,8.457840574,727,0.550989857,8.474240551,654,0.565675516,8.701780439,751,0.455086657,9.558016183,700,0.345805325,8.769026028,980,1.059683693,7.501549535,934,0.773411367
624412800,1989-10-15T00:00:00Z,9.314748741,1328,0.685625742,10.07321823,856,0.393357458,10.50415946,727,0.847194011,9.675941771,654,0.724007627,9.526137676,751,0.444250941,10.28016532,700,0.405497929,10.27618464,979,0.891289959,9.211887951,935,0.604901733
627091200,1989-11-15T00:00:00Z,10.28834626,1328,0.774904194,10.25028,851,0.543529804,10.45113829,727,0.372718126,10.10768692,654,0.312634105,10.35363786,751,0.193457639,10.88678711,700,0.417713144,10.16549353,982,0.543373162,9.791426809,931,0.642964734
629683200,1989-12-15T00:00:00Z,10.42327832,1000,1.587919691,9.876788843,856,0.499161699,9.800708713,727,0.26534939,9.794799431,654,0.370923949,9.786201731,751,0.230008764,9.512700893,700,0.558953986,9.721191406,984,0.543467778,9.56392664,933,0.82036231
632361600,1990-01-15T00:00:00Z,10.76561928,598,2.28900897,10.49170322,855,0.710716176,12.23168576,727,0.683422881,12.40763944,654,0.902353227,12.41189352,751,0.878530565,11.831762,700,0.544040107,10.24334424,981,0.79754903,9.414274158,932,0.555636259
635040000,1990-02-15T00:00:00Z,9.919709902,296,2.216463485,9.507269394,855,1.105527879,10.37380381,727,0.416286106,10.75603259,654,0.568949068,11.02463512,751,0.504112715,10.57314328,701,0.68378367,11.00344141,979,0.836867422,10.13995133,935,0.865917067
637459200,1990-03-15T00:00:00Z,8.372730928,238,1.156879921,8.503410855,755,1.153454859,10.22001268,727,0.33132505,9.725685236,654,0.406879454,9.801826731,751,0.286249581,9.83882394,700,0.282981068,10.02149234,981,0.910826789,8.482406208,935,0.705767224
640137600,1990-04-15T00:00:00Z,6.671960941,571,2.051953954,6.650628198,855,0.98755316,7.180669406,731,0.663625649,7.463285406,658,0.795148567,7.619476925,755,0.718835221,8.856042342,704,0.850291913,7.048545566,985,1.287342133,5.812378973,936,0.796419077
642729600,1990-05-15T00:00:00Z,5.729698288,1213,1.8518884,7.117923063,855,0.883267992,7.909976251,727,0.66565291,7.994703567,654,0.675715366,8.641757604,751,0.608828969,7.989748186,700,0.815138216,6.494981027,979,0.664335594,5.273876587,933,0.903010816
645408000,1990-06-15T00:00:00Z,4.058357674,1332,0.593948571,4.532676581,855,0.413188361,4.865024152,727,0.288213962,5.079607762,654,0.41465916,4.915689562,751,0.440910144,6.159266632,702,0.600637502,6.13246941,982,0.913321108,5.050428893,934,0.425005072
648000000,1990-07-15T00:00:00Z,5.139065933,1337,0.444946686,5.685191135,851,0.646495619,5.180186863,727,0.475081634,5.985570318,654,0.317646704,6.2585576,751,0.178024407,6.941300223,700,0.55539933,6.229982462,980,0.707517206,5.519244457,933,0.401929268
650678400,1990-08-15T00:00:00Z,6.365553763,1327,0.602620931,6.340112162,855,0.420733651,6.887567701,727,0.246408315,6.7381491,654,0.475409761,6.29598296,751,0.465370274,6.303765346,700,0.731352485,7.02762405,979,0.389592486,6.597197245,934,0.697084762
653356800,1990-09-15T00:00:00Z,7.945316896,1333,0.747766584,8.532266153,851,0.316561281,7.021785269,727,0.534115376,7.699433026,654,0.679733494,8.768062505,751,0.283678463,8.583127093,700,0.384797368,8.883990149,981,0.767030554,7.914041544,932,0.783519336
655948800,1990-10-15T00:00:00Z,8.407352382,1335,0.949157016,9.673030885,855,0.527661297,8.523360262,727,0.447208004,8.510938545,654,0.712126315,8.720333826,751,0.661419836,9.366959357,702,0.68375405,9.36220783,978,0.847235555,9.539027996,934,1.103185539
658627200,1990-11-15T00:00:00Z,10.05890948,1330,0.858054228,10.57532095,855,0.522240369,10.18346077,727,0.600867722,9.256103516,654,0.486311403,9.356007095,751,0.338284567,10.27112235,700,0.559264562,11.62589975,979,1.317068843,9.904499716,934,1.12310363
661219200,1990-12-15T00:00:00Z,10.71463826,1055,2.50722335,9.65747983,856,0.745567691,11.75047552,727,0.422723799,10.51261468,654,0.471757306,10.21046417,751,0.263234275,10.62055943,700,0.448374503,9.816392285,979,0.838063909,9.592189589,935,0.673315285
663897600,1991-01-15T00:00:00Z,11.37134314,697,2.048856638,10.91879911,855,1.031900911,10.82110235,727,0.574601058,11.45414039,654,0.61712037,11.48433339,751,0.50820053,10.83692381,701,0.575817267,9.515834832,982,0.915292198,8.083139936,935,0.523348405
666576000,1991-02-15T00:00:00Z,10.00423783,215,2.313895162,9.828486784,772,2.224434512,9.614816616,727,0.554664373,10.02559221,654,0.446258918,10.09174746,751,0.299197735,9.919075056,700,0.523679807,9.162826585,979,0.829743631,8.776880066,933,0.643385484
668995200,1991-03-15T00:00:00Z,9.10599945,259,1.561118175,9.431903413,851,0.979447527,12.16474757,727,0.872137797,11.81434711,654,0.611018051,11.60371588,751,0.724046243,10.5494889,702,0.790636849,9.418656918,982,1.344611267,7.361155116,937,0.80238665
671673600,1991-04-15T00:00:00Z,4.876189328,249,2.55671105,6.417254976,851,1.229954193,8.123329529,729,0.91277898,8.560469465,656,1.300587873,9.22095991,753,1.2592616,9.562570052,704,1.180087742,8.437547637,984,0.840345775,8.406131187,937,0.808270824
674265600,1991-05-15T00:00:00Z,5.724466041,1240,1.782082141,6.219676166,872,1.127184352,7.494119595,743,1.281811662,7.169163946,670,1.478745597,7.438363246,767,1.377055848,8.037037088,716,1.292085221,7.688813325,999,1.114231449,5.744924959,950,1.14472082
676944000,1991-06-15T00:00:00Z,4.881118523,1334,0.61310999,5.596885039,856,0.381761087,5.971733345,728,0.601184464,5.86550908,655,0.345469324,6.33701081,752,0.374402583,6.524370876,701,0.436194171,5.574734876,982,0.656295954,4.843201663,935,0.486758771
679536000,1991-07-15T00:00:00Z,4.806456832,1331,0.653014908,4.535926561,857,0.382145215,6.054376288,728,0.310624261,5.65376312,655,0.413934269,4.774544574,752,0.439781908,4.939758301,700,0.39217126,5.340009319,985,0.754554485,5.360600909,938,0.647433513
682214400,1991-08-15T00:00:00Z,5.816648188,1330,0.546055401,6.41889163,855,0.721613229,6.491290191,727,0.381177166,6.908364392,654,0.516944762,6.912234209,751,0.319584736,7.696748785,701,0.500237932,7.226033861,980,0.761094534,6.718191369,937,0.643551668
684892800,1991-09-15T00:00:00Z,8.375347777,1331,0.491213253,8.205045002,855,0.575742671,8.371016512,727,0.852474358,8.797197534,654,0.818851362,8.92804906,751,0.835978588,9.400246931,700,0.671372548,9.455695058,983,0.639312707,7.943247619,935,0.836412328
687484800,1991-10-15T00:00:00Z,8.634202055,1336,0.698936919,8.580829678,855,0.316636932,8.149604808,727,0.435244527,7.790929019,654,0.521862851,8.690909516,751,0.438661599,9.574921875,700,0.361003722,8.692388773,983,0.462962999,8.289130244,937,0.547783415
690163200,1991-11-15T00:00:00Z,9.870816825,1333,0.81242071,9.609574648,856,0.480150329,9.788609816,727,0.313561793,9.753033466,654,0.7070659,9.325785671,751,0.586723249,9.970152244,702,0.572741544,10.24420228,982,0.787072877,9.921723067,932,0.647817525
692755200,1991-12-15T00:00:00Z,9.985314092,1251,1.518239124,11.12890397,855,0.928145877,11.63424175,727,0.71760348,12.03117086,654,0.410328914,12.25086603,751,0.275219844,11.52347093,701,0.764379258,10.50754427,983,0.822449892,11.20929738,936,0.527032418
695433600,1992-01-15T00:00:00Z,9.657745748,474,1.848949893,9.367111545,855,0.64585646,8.984964027,727,0.859969882,9.299442583,654,0.897158023,9.791840047,751,0.548097965,10.54380162,700,0.433506397,9.533332274,983,0.463422355,9.724844377,935,0.593799077
698112000,1992-02-15T00:00:00Z,9.195354115,440,1.696808052,9.036010594,823,1.567075856,11.54287472,727,0.522728544,10.43360271,654,0.73299243,9.783409881,751,0.28209024,8.526020508,700,0.723929304,7.804244467,982,0.825417136,8.398846488,936,0.78782752
700617600,1992-03-15T00:00:00Z,12.36290525,187,1.695529532,9.950030474,705,1.598979618,10.76227822,727,0.542285506,11.4940361,654,0.25045563,11.13182423,751,0.411248505,10.49568848,700,0.405192956,9.379018624,982,0.666014069,8.784342274,937,0.629805694
703296000,1992-04-15T00:00:00Z,6.44827596,300,2.025341418,5.933738295,831,1.25279272,9.650484654,727,0.344176249,8.452191741,654,0.52478288,7.943975091,751,0.459343928,6.492481864,700,0.577774443,7.688829375,984,0.672557114,7.500222231,936,0.5682352
705888000,1992-05-15T00:00:00Z,4.540917769,978,1.997256289,5.234029699,864,0.950663626,7.624988706,735,0.836664805,7.061744713,662,0.916666318,6.614278399,759,0.744003743,5.334794619,709,0.708622841,6.12165404,990,1.036067609,6.881459263,945,1.089719283
708566400,1992-06-15T00:00:00Z,5.20350094,1330,1.204949101,6.514064213,855,1.118299981,6.837934953,727,0.371348348,7.2739437,654,0.467250851,7.869842814,751,0.248108037,7.065809152,700,0.463376439,6.864073527,983,0.975225572,5.7765531,935,0.550120606
711158400,1992-07-15T00:00:00Z,4.783659975,1336,0.818280946,5.492357337,851,0.674676468,5.975256835,727,0.214007837,5.934289961,654,0.242480899,6.456182122,751,0.201995881,6.795809406,702,0.562792004,6.075043502,981,0.766032436,5.750919118,935,0.571927092
713836800,1992-08-15T00:00:00Z,7.532834445,1335,0.590640974,7.768465026,855,0.605547959,6.914883242,727,0.35414567,6.940128058,654,0.343060015,7.642067088,751,0.298064025,8.123367048,700,0.369810137,7.525382685,984,0.716261242,7.291844604,933,0.507989578
716515200,1992-09-15T00:00:00Z,8.428336576,1333,0.45735665,7.861677794,856,0.340049977,8.69012342,727,0.415809837,8.841475087,654,0.486876107,8.764179011,751,0.485972655,8.884379883,700,0.635683757,8.363969418,982,0.562197829,8.297295464,936,0.623637851
719107200,1992-10-15T00:00:00Z,9.154402212,1335,0.662027481,9.363549919,856,0.495621305,8.861476557,727,0.499299491,9.187525385,654,0.377215734,9.521176192,751,0.279009746,9.654831194,700,0.302677636,9.636421018,984,0.766985253,9.407392453,936,0.755000204
721785600,1992-11-15T00:00:00Z,10.0197574,1330,1.282139597,11.06625777,855,0.995370088,12.86651183,727,0.321111261,12.52247288,654,0.320498432,12.30373824,751,0.218882396,11.33620605,700,0.805569358,9.6051903,982,0.534818245,10.43566176,935,0.646046559
724377600,1992-12-15T00:00:00Z,10.3839522,862,2.005121153,10.43457829,857,1.002259855,10.99512121,728,0.493249128,11.49647394,655,0.771392757,11.02872288,752,0.749548953,10.67663053,702,0.627183809,10.38609018,985,0.900286591,10.09032681,936,1.017636566
727056000,1993-01-15T00:00:00Z,9.817771985,941,1.284343416,11.03787708,851,0.637032997,10.36042477,727,0.37362758,10.31768519,654,0.344335837,10.96693081,751,0.656512077,10.64459473,700,0.685186255,9.434586192,984,0.564690286,8.579731804,939,0.723153188
729734400,1993-02-15T00:00:00Z,9.262295337,470,2.723032449,8.895731224,848,1.093303556,9.747191207,727,0.410915169,10.16165544,654,0.296424425,9.523918629,751,0.411513946,9.826723633,700,0.49417906,9.502514425,983,0.727589704,8.493907712,935,0.434899758
732153600,1993-03-15T00:00:00Z,8.666038679,413,1.565721319,7.591966861,856,0.562598969,9.108853137,727,0.654473543,8.939490455,654,0.821919563,8.235716311,751,0.89253291,8.516641323,700,0.383820498,8.881808206,986,0.472240085,9.169373666,937,0.559668861
734832000,1993-04-15T00:00:00Z,6.826990012,826,1.704644573,6.768304564,857,0.971798678,9.14709808,728,0.459733796,9.066122227,655,0.569544308,8.518139129,752,0.600097603,8.462797984,701,0.669987739,8.209997583,986,0.598957592,7.707205151,935,0.641561796
737424000,1993-05-15T00:00:00Z,6.401262223,1256,1.179692709,6.70744856,860,1.011111191,7.372732694,732,0.685392133,7.470674969,659,0.705747894,7.277222326,756,0.68717733,7.105402355,706,0.747811033,6.222558692,991,0.682645789,5.529852613,941,0.751899696
740102400,1993-06-15T00:00:00Z,5.146166407,1336,0.603287967,5.604067719,857,0.440385401,6.545677101,728,0.320166021,6.409129741,655,0.345846595,6.116785577,752,0.467533558,6.482701888,701,0.522721625,6.114721283,984,0.530972034,5.355253823,936,0.447278023
742694400,1993-07-15T00:00:00Z,5.241839407,1334,0.448285864,5.866578289,856,0.615541207,6.125170596,727,0.376964893,6.237134461,654,0.280114573,6.754425089,751,0.352126342,7.158002232,700,0.624012951,6.45548842,983,0.869541522,5.83191869,937,0.726633861
745372800,1993-08-15T00:00:00Z,6.498005022,1330,0.793023197,7.048325013,856,0.380819677,6.144673637,727,0.328025255,6.655540723,654,0.212262807,6.94408302,751,0.331773264,7.303273577,700,0.277644823,7.734383923,985,0.677476133,6.980034838,934,0.623846455
748051200,1993-09-15T00:00:00Z,9.056095891,1332,0.621246723,8.644161755,855,0.578511167,7.833657287,727,0.340754225,7.780799796,654,0.216263787,7.633436668,751,0.384961673,8.202721122,700,0.404765082,8.565833782,986,0.494416455,7.384058585,933,0.695774385
750643200,1993-10-15T00:00:00Z,8.601710663,1338,0.595860753,8.777431595,856,0.530208962,10.55435705,727,0.257848883,9.951955066,654,0.395337843,9.800207796,751,0.352766762,9.273137556,700,0.667436251,8.66626572,984,0.739760132,8.044206425,935,0.619697439
753321600,1993-11-15T00:00:00Z,10.1945463,1337,0.537732366,10.73018092,855,0.402454782,11.29667754,727,0.305735395,11.39695698,654,0.242151196,11.27147527,751,0.440980123,10.7974998,701,0.301076272,10.54918775,983,0.576519793,10.07027796,933,0.759998578
755913600,1993-12-15T00:00:00Z,10.92526245,1312,1.330483524,10.10369495,855,0.259735519,12.12854894,727,0.573704049,10.71458393,654,0.493039662,10.8824497,751,0.901912856,11.49756696,700,0.572558346,10.55036145,984,0.649319802,10.34864429,936,0.925707895
758592000,1994-01-15T00:00:00Z,9.124354231,710,1.468678709,9.480782849,855,0.874069333,10.90296166,727,0.444155511,9.875512919,654,0.400404329,9.617943653,751,0.252563425,8.704710347,701,0.444175004,8.711640149,984,0.507571216,8.318116282,932,0.402394586
761270400,1994-02-15T00:00:00Z,9.487491308,764,1.880872624,10.28818975,856,0.983277468,11.83560168,727,0.467728519,11.28930739,654,0.41485943,11.18108408,751,0.581702027,10.44607453,701,0.595721624,9.928840218,982,0.782252245,8.532262112,934,0.763639447
763689600,1994-03-15T00:00:00Z,11.81210899,256,2.432403527,9.87203156,819,1.912554635,10.05504347,727,0.416074387,11.01006576,654,0.338025336,11.46795939,751,0.255124045,10.89393276,700,0.401802095,11.03409524,983,0.697992546,9.376640876,932,0.489273807
766368000,1994-04-15T00:00:00Z,6.803714694,325,2.441440575,8.169995292,838,1.274275754,8.202215417,729,0.552399698,8.500500191,656,0.552777242,8.873469663,753,0.539110293,8.885006288,702,0.638268814,8.20602646,986,0.642926915,7.457127032,938,0.796159131
768960000,1994-05-15T00:00:00Z,6.126346282,1009,2.592532727,6.464427342,856,1.191391598,8.080426897,728,0.508526826,8.322782234,655,0.554459797,8.513517988,752,0.531198053,8.7532299,701,0.76766459,7.726824505,984,0.644191027,7.887848325,935,0.610581032
771638400,1994-06-15T00:00:00Z,5.062371351,1336,0.544972377,5.430218042,855,0.603326015,6.428689445,727,0.318476894,6.675531883,654,0.220312418,6.630689029,751,0.262105352,6.225768869,702,0.374611202,5.645909985,981,0.53194364,5.62568808,936,0.428977447
774230400,1994-07-15T00:00:00Z,5.119067529,1336,0.616402388,5.263931987,856,0.425856824,6.307629277,727,0.330108737,6.03061613,654,0.332669699,5.863747425,751,0.296188462,6.06268232,699,0.467625577,5.968495158,981,0.537865473,5.297496591,934,0.705143877
776908800,1994-08-15T00:00:00Z,7.701432536,1330,0.537862829,6.612974363,856,0.865440016,6.457142742,727,0.577624579,6.340058773,654,0.717977162,5.755755347,751,0.658199915,5.59938058,700,0.408105937,6.051576011,983,0.420101928,5.256924811,934,0.418584968
779587200,1994-09-15T00:00:00Z,7.900381108,1334,0.617712993,8.342242375,856,0.570488535,7.675832966,727,0.204849643,7.78960603,654,0.428550365,8.438780194,751,0.384707066,9.500089983,700,0.653687055,8.68003287,984,1.116344041,8.115247459,933,0.588516974
782179200,1994-10-15T00:00:00Z,8.470327243,1338,0.803223848,9.510268183,855,0.332620305,9.63767785,727,0.344559535,9.990824941,654,0.27606939,10.04666954,751,0.287472257,10.34462333,700,0.419886549,10.64211565,984,0.806850889,10.19661528,934,0.620372224
784857600,1994-11-15T00:00:00Z,11.1561177,1336,1.014160374,12.51029498,856,0.525366745,11.60837426,727,0.271351064,11.38017324,654,0.375420097,11.50518709,751,0.430253324,11.76968471,700,0.589456924,13.40869339,984,1.241246662,11.05485061,934,0.963988884
787449600,1994-12-15T00:00:00Z,9.899510025,1038,1.865556024,11.41105638,856,0.628642735,10.83125081,727,0.872095996,11.75780055,654,0.744630793,12.11704446,751,0.235431694,11.8960798,700,0.448582279,10.49509138,984,0.703226993,9.852463781,934,0.697216656
790128000,1995-01-15T00:00:00Z,8.7335268,582,1.954873239,9.026671578,855,1.129002069,11.41473414,727,0.742617471,11.68386253,654,0.614624639,11.15648536,751,0.516219544,10.27342775,701,0.724412314,9.03403067,983,0.641874092,8.726625622,936,0.725298449
792806400,1995-02-15T00:00:00Z,8.907868947,141,2.205269121,9.611676483,841,1.794087798,9.342739856,727,0.338870887,9.750492761,654,0.315489597,10.44020798,751,0.538535641,10.14452079,700,0.437802623,8.694980032,984,0.630138617,8.897558176,934,0.676799644